Hourly Weather Bolshie Smolyancy

Today, 16 June, Wednesday

Time Temperature Precipitation Wind Pressure Humidity
00:00 +15°C° 0 mm 2 mps 748 mmHg 96%
01:00 +15°C° 0 mm 2 mps 748 mmHg 96%
02:00 +15°C° 0 mm 2 mps 749 mmHg 96%
03:00 +14°C° 0 mm 2 mps 749 mmHg 95%
04:00 +13°C° 0 mm 2 mps 749 mmHg 95%
05:00 +13°C° 0 mm 2 mps 749 mmHg 94%
06:00 +13°C° 0 mm 3 mps 750 mmHg 87%
07:00 +16°C° 0 mm 3 mps 750 mmHg 81%
08:00 +17°C° 0 mm 3 mps 750 mmHg 74%
09:00 +18°C° 0 mm 3 mps 751 mmHg 69%
10:00 +20°C° 0 mm 3 mps 751 mmHg 64%
11:00 +21°C° 0 mm 3 mps 751 mmHg 58%
12:00 +21°C° 0 mm 3 mps 751 mmHg 55%
13:00 +22°C° 0 mm 3 mps 751 mmHg 52%
14:00 +22°C° 0 mm 3 mps 751 mmHg 49%
15:00 +23°C° 0 mm 2 mps 751 mmHg 50%
16:00 +23°C° 0 mm 2 mps 751 mmHg 52%
17:00 +23°C° 0 mm 2 mps 751 mmHg 53%
18:00 +20°C° 0 mm 2 mps 752 mmHg 59%
19:00 +19°C° 0 mm 2 mps 752 mmHg 64%
20:00 +17°C° 0 mm 2 mps 752 mmHg 70%
21:00 +16°C° 0 mm 2 mps 752 mmHg 72%
22:00 +14°C° 0 mm 1 mps 753 mmHg 75%
23:00 +13°C° 0 mm 1 mps 753 mmHg 77%

Tomorrow, 17 June, Thursday

Time Temperature Precipitation Wind Pressure Humidity
00:00 +13°C° 0 mm 1 mps 753 mmHg 77%
01:00 +12°C° 0 mm 1 mps 754 mmHg 77%
02:00 +12°C° 0 mm 1 mps 754 mmHg 77%
03:00 +12°C° 0 mm 1 mps 754 mmHg 77%
04:00 +12°C° 0 mm 1 mps 755 mmHg 78%
05:00 +13°C° 0 mm 1 mps 755 mmHg 78%
06:00 +15°C° 0 mm 2 mps 755 mmHg 73%
07:00 +17°C° 0 mm 2 mps 755 mmHg 68%
08:00 +19°C° 0 mm 2 mps 756 mmHg 63%
09:00 +20°C° 0 mm 2 mps 756 mmHg 59%
10:00 +21°C° 0 mm 2 mps 756 mmHg 56%
11:00 +24°C° 0 mm 2 mps 756 mmHg 52%
12:00 +24°C° 0 mm 2 mps 756 mmHg 51%
13:00 +25°C° 0 mm 2 mps 756 mmHg 49%
14:00 +25°C° 0 mm 2 mps 756 mmHg 48%
15:00 +25°C° 0 mm 1 mps 756 mmHg 49%
16:00 +25°C° 0 mm 1 mps 756 mmHg 51%
17:00 +25°C° 0 mm 1 mps 756 mmHg 53%
18:00 +24°C° 0 mm 1 mps 756 mmHg 60%
19:00 +22°C° 0 mm 1 mps 756 mmHg 68%
20:00 +21°C° 0 mm 1 mps 756 mmHg 75%
21:00 +20°C° 0 mm 1 mps 756 mmHg 78%
22:00 +19°C° 0 mm 1 mps 756 mmHg 80%
23:00 +18°C° 0 mm 1 mps 757 mmHg 82%

Day after tomorrow, 18 June, Friday

Time Temperature Precipitation Wind Pressure Humidity
00:00 +16°C° 0 mm 1 mps 757 mmHg 84%
01:00 +16°C° 0 mm 1 mps 757 mmHg 86%
02:00 +15°C° 0 mm 1 mps 757 mmHg 87%
03:00 +15°C° 0 mm 1 mps 757 mmHg 87%
04:00 +15°C° 0 mm 2 mps 757 mmHg 86%
05:00 +16°C° 0 mm 2 mps 757 mmHg 85%
06:00 +17°C° 0 mm 2 mps 757 mmHg 79%
07:00 +19°C° 0 mm 2 mps 757 mmHg 73%
08:00 +21°C° 0 mm 2 mps 757 mmHg 67%
09:00 +22°C° 0 mm 3 mps 757 mmHg 63%
10:00 +25°C° 0 mm 3 mps 757 mmHg 59%
11:00 +26°C° 0 mm 3 mps 757 mmHg 55%
12:00 +26°C° 0 mm 3 mps 757 mmHg 53%
13:00 +27°C° 0 mm 3 mps 757 mmHg 52%
14:00 +27°C° 0 mm 3 mps 757 mmHg 51%
15:00 +27°C° 0 mm 3 mps 757 mmHg 54%
16:00 +27°C° 0 mm 3 mps 756 mmHg 58%
17:00 +26°C° 0 mm 3 mps 756 mmHg 61%
18:00 +25°C° 0 mm 3 mps 756 mmHg 68%
19:00 +22°C° 0 mm 3 mps 756 mmHg 75%
20:00 +20°C° 0 mm 3 mps 756 mmHg 82%
21:00 +19°C° 0 mm 3 mps 756 mmHg 84%
22:00 +18°C° 0 mm 3 mps 757 mmHg 86%
23:00 +17°C° 0 mm 3 mps 757 mmHg 88%

19 June, Saturday

Time Temperature Precipitation Wind Pressure Humidity
00:00 +16°C° 0 mm 2 mps 757 mmHg 89%
01:00 +16°C° 0 mm 2 mps 757 mmHg 90%
02:00 +16°C° 0 mm 2 mps 757 mmHg 92%
03:00 +16°C° 0 mm 2 mps 757 mmHg 91%
04:00 +16°C° 0 mm 2 mps 757 mmHg 91%
05:00 +17°C° 0 mm 2 mps 757 mmHg 91%
06:00 +18°C° 0 mm 2 mps 757 mmHg 84%
07:00 +20°C° 0 mm 2 mps 757 mmHg 78%
08:00 +22°C° 0 mm 3 mps 757 mmHg 72%
09:00 +24°C° 0 mm 3 mps 757 mmHg 68%
10:00 +25°C° 0 mm 3 mps 757 mmHg 64%
11:00 +26°C° 0 mm 3 mps 757 mmHg 60%
12:00 +26°C° 0 mm 3 mps 757 mmHg 58%
13:00 +27°C° 0 mm 3 mps 757 mmHg 57%
14:00 +27°C° 0 mm 3 mps 756 mmHg 55%
15:00 +27°C° 0 mm 3 mps 756 mmHg 58%
16:00 +27°C° 0 mm 3 mps 756 mmHg 61%
17:00 +27°C° 0 mm 3 mps 756 mmHg 64%
18:00 +25°C° 0 mm 3 mps 756 mmHg 71%
19:00 +24°C° 0 mm 3 mps 756 mmHg 77%
20:00 +21°C° 0 mm 3 mps 755 mmHg 83%
21:00 +20°C° 0 mm 3 mps 755 mmHg 86%
22:00 +19°C° 0 mm 3 mps 756 mmHg 88%
23:00 +18°C° 0 mm 3 mps 756 mmHg 91%

20 June, Sunday

Time Temperature Precipitation Wind Pressure Humidity
00:00 +18°C° 0 mm 3 mps 756 mmHg 92%
01:00 +17°C° 0 mm 2 mps 756 mmHg 92%
02:00 +17°C° 0 mm 2 mps 756 mmHg 93%
03:00 +17°C° 0 mm 2 mps 756 mmHg 92%
04:00 +17°C° 0 mm 2 mps 756 mmHg 92%
05:00 +17°C° 0 mm 2 mps 756 mmHg 91%
06:00 +19°C° 0 mm 2 mps 756 mmHg 86%
07:00 +21°C° 0 mm 2 mps 756 mmHg 80%
08:00 +23°C° 0 mm 2 mps 755 mmHg 75%
09:00 +24°C° 0 mm 3 mps 755 mmHg 70%
10:00 +26°C° 0 mm 3 mps 755 mmHg 65%
11:00 +27°C° 0 mm 3 mps 755 mmHg 61%
12:00 +27°C° 0 mm 3 mps 755 mmHg 59%
13:00 +28°C° 0 mm 3 mps 754 mmHg 57%
14:00 +28°C° 0 mm 4 mps 754 mmHg 55%
15:00 +28°C° 0 mm 3 mps 754 mmHg 58%
16:00 +28°C° 0 mm 3 mps 754 mmHg 61%
17:00 +27°C° 0 mm 3 mps 754 mmHg 63%
18:00 +26°C° 0 mm 3 mps 754 mmHg 70%
19:00 +25°C° 0 mm 3 mps 753 mmHg 76%
20:00 +23°C° 0 mm 2 mps 753 mmHg 83%
21:00 +21°C° 0 mm 2 mps 753 mmHg 86%
22:00 +20°C° 0 mm 3 mps 753 mmHg 89%
23:00 +19°C° 0 mm 3 mps 753 mmHg 91%

21 June, Monday

Time Temperature Precipitation Wind Pressure Humidity
00:00 +19°C° 0 mm 2 mps 754 mmHg 92%
01:00 +19°C° 0 mm 2 mps 754 mmHg 93%
02:00 +18°C° 0 mm 2 mps 754 mmHg 93%
03:00 +19°C° 0 mm 2 mps 754 mmHg 92%
04:00 +20°C° 0 mm 1 mps 754 mmHg 91%
05:00 +20°C° 0 mm 1 mps 754 mmHg 90%
06:00 +22°C° 0 mm 1 mps 754 mmHg 84%
07:00 +23°C° 0 mm 1 mps 754 mmHg 78%
08:00 +25°C° 0 mm 2 mps 754 mmHg 72%
09:00 +26°C° 0 mm 2 mps 754 mmHg 68%
10:00 +27°C° 0 mm 2 mps 754 mmHg 65%
11:00 +28°C° 0 mm 3 mps 753 mmHg 61%
12:00 +28°C° 0 mm 3 mps 753 mmHg 59%
13:00 +29°C° 0 mm 3 mps 753 mmHg 58%
14:00 +29°C° 0 mm 3 mps 753 mmHg 56%
15:00 +29°C° 0 mm 3 mps 753 mmHg 57%
16:00 +29°C° 0 mm 2 mps 752 mmHg 59%
17:00 +29°C° 0 mm 2 mps 752 mmHg 60%
18:00 +27°C° 0 mm 2 mps 752 mmHg 67%
19:00 +25°C° 0 mm 2 mps 752 mmHg 73%
20:00 +24°C° 0 mm 2 mps 752 mmHg 80%
21:00 +23°C° 0 mm 2 mps 752 mmHg 81%
22:00 +21°C° 0 mm 2 mps 752 mmHg 83%
23:00 +20°C° 0 mm 2 mps 752 mmHg 84%
Show more